Time,TemperatureF,DewpointF,PressureIn,WindDirection,WindDirectionDegrees,WindSpeedMPH,WindSpeedGustMPH,Humidity,HourlyPrecipIn,Conditions,Clouds,dailyrainin,SoftwareType,DateUTC
2013-03-13 00:03:00,25.2,22.7,30.40,North,8,0.0,0.0,90,0.00,,,-99.99,Meteorologica,2013-03-13 05:03:00,
2013-03-13 00:08:00,25.2,22.8,30.40,North,8,0.0,0.0,90,0.00,,,-99.99,Meteorologica,2013-03-13 05:08:00,
2013-03-13 00:13:00,25.1,22.6,30.40,North,8,0.0,0.0,90,0.00,,,-99.99,Meteorologica,2013-03-13 05:13:00,
2013-03-13 00:19:00,25.2,22.8,30.40,North,8,0.0,0.0,90,0.00,,,-99.99,Meteorologica,2013-03-13 05:19:00,
2013-03-13 00:24:00,25.3,22.8,30.40,North,8,0.0,0.0,90,0.00,,,-99.99,Meteorologica,2013-03-13 05:24:00,
2013-03-13 00:29:00,25.6,23.2,30.40,North,8,0.0,0.0,90,0.00,,,-99.99,Meteorologica,2013-03-13 05:29:00,
2013-03-13 00:34:00,25.5,23.0,30.40,North,8,0.0,0.0,90,0.00,,,-99.99,Meteorologica,2013-03-13 05:34:00,
2013-03-13 00:39:00,25.5,23.0,30.40,North,8,0.0,0.0,90,0.00,,,-99.99,Meteorologica,2013-03-13 05:39:00,
2013-03-13 00:44:00,25.4,22.9,30.40,North,8,0.0,0.0,90,0.00,,,-99.99,Meteorologica,2013-03-13 05:44:00,
2013-03-13 00:49:00,25.3,22.9,30.40,North,8,0.0,0.0,90,0.00,,,-99.99,Meteorologica,2013-03-13 05:49:00,
2013-03-13 00:54:00,25.3,22.8,30.40,North,8,0.0,0.0,90,0.00,,,-99.99,Meteorologica,2013-03-13 05:54:00,
2013-03-13 00:59:00,25.1,22.6,30.40,North,8,0.0,0.0,90,0.00,,,-99.99,Meteorologica,2013-03-13 05:59:00,
2013-03-13 01:04:00,24.9,22.4,30.40,North,8,0.0,0.0,90,0.00,,,-99.99,Meteorologica,2013-03-13 06:04:00,
2013-03-13 01:09:00,24.7,22.3,30.40,North,8,0.0,0.0,90,0.00,,,-99.99,Meteorologica,2013-03-13 06:09:00,
2013-03-13 01:14:00,24.6,22.2,30.40,North,8,0.0,0.0,90,0.00,,,-99.99,Meteorologica,2013-03-13 06:14:00,
2013-03-13 01:19:00,24.5,22.1,30.40,North,8,0.0,0.0,90,0.00,,,-99.99,Meteorologica,2013-03-13 06:19:00,
2013-03-13 01:24:00,24.4,22.0,30.40,North,8,0.0,0.0,90,0.00,,,-99.99,Meteorologica,2013-03-13 06:24:00,
2013-03-13 01:29:00,24.3,22.0,30.40,North,8,0.0,0.0,90,0.00,,,-99.99,Meteorologica,2013-03-13 06:29:00,
2013-03-13 01:34:00,24.2,21.9,30.40,North,8,0.0,0.0,90,0.00,,,-99.99,Meteorologica,2013-03-13 06:34:00,
2013-03-13 01:39:00,24.1,21.8,30.41,North,8,0.0,0.0,91,0.00,,,-99.99,Meteorologica,2013-03-13 06:39:00,
2013-03-13 01:44:00,23.8,21.5,30.41,North,8,0.0,0.0,91,0.00,,,-99.99,Meteorologica,2013-03-13 06:44:00,
2013-03-13 01:49:00,23.7,21.5,30.41,North,8,0.0,0.0,91,0.00,,,-99.99,Meteorologica,2013-03-13 06:49:00,
2013-03-13 01:54:00,23.6,21.4,30.41,North,8,0.0,0.0,91,0.00,,,-99.99,Meteorologica,2013-03-13 06:54:00,
2013-03-13 01:59:00,23.6,21.4,30.41,North,8,0.0,0.0,91,0.00,,,-99.99,Meteorologica,2013-03-13 06:59:00,
2013-03-13 02:04:00,23.5,21.4,30.41,North,8,0.0,0.0,91,0.00,,,-99.99,Meteorologica,2013-03-13 07:04:00,
2013-03-13 02:09:00,23.4,21.3,30.41,North,8,0.0,0.0,91,0.00,,,-99.99,Meteorologica,2013-03-13 07:09:00,
2013-03-13 02:14:00,23.6,21.4,30.41,North,8,0.0,0.0,91,0.00,,,-99.99,Meteorologica,2013-03-13 07:14:00,
2013-03-13 02:19:00,23.5,21.3,30.41,North,8,0.0,0.0,91,0.00,,,-99.99,Meteorologica,2013-03-13 07:19:00,
2013-03-13 02:24:00,23.5,21.3,30.41,North,8,0.0,0.0,91,0.00,,,-99.99,Meteorologica,2013-03-13 07:24:00,
2013-03-13 02:29:00,23.5,21.3,30.41,North,8,0.0,0.0,91,0.00,,,-99.99,Meteorologica,2013-03-13 07:29:00,
2013-03-13 02:34:00,23.4,21.2,30.41,North,8,0.0,0.0,91,0.00,,,-99.99,Meteorologica,2013-03-13 07:34:00,
2013-03-13 02:39:00,23.4,21.2,30.41,North,8,0.0,0.0,91,0.00,,,-99.99,Meteorologica,2013-03-13 07:39:00,
2013-03-13 02:44:00,23.3,21.1,30.42,North,8,0.0,0.0,91,0.00,,,-99.99,Meteorologica,2013-03-13 07:44:00,
2013-03-13 02:49:00,23.2,21.0,30.41,North,8,0.0,0.0,91,0.00,,,-99.99,Meteorologica,2013-03-13 07:49:00,
2013-03-13 02:54:00,23.2,21.0,30.41,North,8,0.0,0.0,91,0.00,,,-99.99,Meteorologica,2013-03-13 07:54:00,
2013-03-13 02:59:00,23.0,20.8,30.41,North,8,0.0,0.0,91,0.00,,,-99.99,Meteorologica,2013-03-13 07:59:00,
2013-03-13 03:04:00,22.6,20.4,30.41,North,8,0.0,0.0,91,0.00,,,-99.99,Meteorologica,2013-03-13 08:04:00,
2013-03-13 03:09:00,22.3,20.2,30.42,North,8,0.0,0.0,91,0.00,,,-99.99,Meteorologica,2013-03-13 08:09:00,
2013-03-13 03:14:00,21.9,19.8,30.42,North,8,0.0,0.0,91,0.00,,,-99.99,Meteorologica,2013-03-13 08:14:00,
2013-03-13 03:19:00,21.7,19.6,30.42,North,8,0.0,0.0,91,0.00,,,-99.99,Meteorologica,2013-03-13 08:19:00,
2013-03-13 03:24:00,21.5,19.4,30.42,North,8,0.0,0.0,91,0.00,,,-99.99,Meteorologica,2013-03-13 08:24:00,
2013-03-13 03:30:00,21.2,19.2,30.42,North,8,0.0,0.0,92,0.00,,,-99.99,Meteorologica,2013-03-13 08:30:00,
2013-03-13 03:35:00,21.2,19.3,30.42,North,8,0.0,0.0,92,0.00,,,-99.99,Meteorologica,2013-03-13 08:35:00,
2013-03-13 03:40:00,21.1,19.2,30.41,North,8,0.0,0.0,92,0.00,,,-99.99,Meteorologica,2013-03-13 08:40:00,
2013-03-13 03:45:00,21.0,19.1,30.41,North,8,0.0,0.0,92,0.00,,,-99.99,Meteorologica,2013-03-13 08:45:00,
2013-03-13 03:50:00,20.7,18.8,30.41,North,8,0.0,0.0,92,0.00,,,-99.99,Meteorologica,2013-03-13 08:50:00,
2013-03-13 03:55:00,20.6,18.7,30.41,North,8,0.0,0.0,92,0.00,,,-99.99,Meteorologica,2013-03-13 08:55:00,
2013-03-13 04:00:00,20.5,18.5,30.41,North,8,0.0,0.0,92,0.00,,,-99.99,Meteorologica,2013-03-13 09:00:00,
2013-03-13 04:05:00,20.3,18.4,30.41,North,8,0.0,0.0,92,0.00,,,-99.99,Meteorologica,2013-03-13 09:05:00,
2013-03-13 04:10:00,20.1,18.2,30.41,North,8,0.0,0.0,92,0.00,,,-99.99,Meteorologica,2013-03-13 09:10:00,
2013-03-13 04:15:00,20.0,18.2,30.41,North,8,0.0,0.0,92,0.00,,,-99.99,Meteorologica,2013-03-13 09:15:00,
2013-03-13 04:21:00,20.0,18.3,30.41,North,8,0.0,0.0,93,0.00,,,-99.99,Meteorologica,2013-03-13 09:21:00,
2013-03-13 04:26:00,19.9,18.2,30.41,North,8,0.0,0.0,93,0.00,,,-99.99,Meteorologica,2013-03-13 09:26:00,
2013-03-13 04:31:00,19.9,18.1,30.41,North,8,0.0,0.0,92,0.00,,,-99.99,Meteorologica,2013-03-13 09:31:00,
2013-03-13 04:36:00,19.7,17.9,30.41,North,8,0.0,0.0,92,0.00,,,-99.99,Meteorologica,2013-03-13 09:36:00,
2013-03-13 04:41:00,19.5,17.8,30.41,North,8,0.0,0.0,93,0.00,,,-99.99,Meteorologica,2013-03-13 09:41:00,
2013-03-13 04:46:00,19.3,17.5,30.41,North,8,0.0,0.0,92,0.00,,,-99.99,Meteorologica,2013-03-13 09:46:00,
2013-03-13 04:51:00,19.2,17.4,30.41,North,8,0.0,0.0,92,0.00,,,-99.99,Meteorologica,2013-03-13 09:51:00,
2013-03-13 04:56:00,19.2,17.5,30.42,North,8,0.0,0.0,93,0.00,,,-99.99,Meteorologica,2013-03-13 09:56:00,
2013-03-13 05:01:00,19.2,17.5,30.41,North,8,0.0,0.0,93,0.00,,,-99.99,Meteorologica,2013-03-13 10:01:00,
2013-03-13 05:06:00,19.1,17.4,30.41,North,8,0.0,0.0,93,0.00,,,-99.99,Meteorologica,2013-03-13 10:06:00,
2013-03-13 05:11:00,19.1,17.4,30.42,North,8,0.0,0.0,93,0.00,,,-99.99,Meteorologica,2013-03-13 10:11:00,
2013-03-13 05:16:00,19.1,17.4,30.42,North,8,0.0,0.0,93,0.00,,,-99.99,Meteorologica,2013-03-13 10:16:00,
2013-03-13 05:21:00,19.0,17.3,30.42,North,8,0.0,0.0,93,0.00,,,-99.99,Meteorologica,2013-03-13 10:21:00,
2013-03-13 05:26:00,18.9,17.2,30.42,North,8,0.0,0.0,93,0.00,,,-99.99,Meteorologica,2013-03-13 10:26:00,
2013-03-13 05:31:00,18.8,17.1,30.42,North,8,0.0,0.0,93,0.00,,,-99.99,Meteorologica,2013-03-13 10:31:00,
2013-03-13 05:36:00,18.8,17.1,30.42,North,8,0.0,0.0,93,0.00,,,-99.99,Meteorologica,2013-03-13 10:36:00,
2013-03-13 05:41:00,18.8,17.2,30.42,North,8,0.0,0.0,93,0.00,,,-99.99,Meteorologica,2013-03-13 10:41:00,
2013-03-13 05:46:00,18.9,17.2,30.42,North,8,0.0,0.0,93,0.00,,,-99.99,Meteorologica,2013-03-13 10:46:00,
2013-03-13 05:51:00,18.9,17.2,30.42,North,8,0.0,0.0,93,0.00,,,-99.99,Meteorologica,2013-03-13 10:51:00,
2013-03-13 05:56:00,18.9,17.2,30.42,North,8,0.0,0.0,93,0.00,,,-99.99,Meteorologica,2013-03-13 10:56:00,
2013-03-13 06:01:00,18.9,17.2,30.42,North,8,0.0,0.0,93,0.00,,,-99.99,Meteorologica,2013-03-13 11:01:00,
2013-03-13 06:06:00,18.9,17.2,30.42,North,8,0.0,0.0,93,0.00,,,-99.99,Meteorologica,2013-03-13 11:06:00,
2013-03-13 06:11:00,18.9,17.2,30.43,North,8,0.0,0.0,93,0.00,,,-99.99,Meteorologica,2013-03-13 11:11:00,
2013-03-13 06:16:00,19.0,17.4,30.43,North,8,0.0,0.0,93,0.00,,,-99.99,Meteorologica,2013-03-13 11:16:00,
2013-03-13 06:21:00,19.0,17.3,30.43,North,8,0.0,0.0,93,0.00,,,-99.99,Meteorologica,2013-03-13 11:21:00,
2013-03-13 06:26:00,19.0,17.3,30.44,North,8,0.0,0.0,93,0.00,,,-99.99,Meteorologica,2013-03-13 11:26:00,
2013-03-13 06:31:00,18.9,17.2,30.44,North,8,0.0,0.0,93,0.00,,,-99.99,Meteorologica,2013-03-13 11:31:00,
2013-03-13 06:36:00,18.9,17.2,30.43,North,8,0.0,0.0,93,0.00,,,-99.99,Meteorologica,2013-03-13 11:36:00,
2013-03-13 06:41:00,18.8,17.1,30.44,North,8,0.0,0.0,93,0.00,,,-99.99,Meteorologica,2013-03-13 11:41:00,
2013-03-13 06:46:00,18.8,17.1,30.43,North,8,0.0,0.0,93,0.00,,,-99.99,Meteorologica,2013-03-13 11:46:00,
2013-03-13 06:51:00,18.8,17.1,30.43,North,8,0.0,0.0,93,0.00,,,-99.99,Meteorologica,2013-03-13 11:51:00,
2013-03-13 06:56:00,18.8,17.2,30.43,North,8,0.0,0.0,93,0.00,,,-99.99,Meteorologica,2013-03-13 11:56:00,
2013-03-13 07:01:00,18.8,17.2,30.43,North,8,0.0,0.0,93,0.00,,,-99.99,Meteorologica,2013-03-13 12:01:00,
2013-03-13 07:06:00,18.9,17.3,30.43,North,8,0.0,0.0,93,0.00,,,-99.99,Meteorologica,2013-03-13 12:06:00,
2013-03-13 07:11:00,18.9,17.3,30.42,North,8,0.0,0.0,93,0.00,,,-99.99,Meteorologica,2013-03-13 12:11:00,
2013-03-13 07:16:00,18.9,17.3,30.42,North,8,0.0,0.0,93,0.00,,,-99.99,Meteorologica,2013-03-13 12:16:00,
2013-03-13 07:21:00,19.0,17.4,30.43,North,8,0.0,0.0,93,0.00,,,-99.99,Meteorologica,2013-03-13 12:21:00,
2013-03-13 07:26:00,18.9,17.2,30.43,North,8,0.0,0.0,93,0.00,,,-99.99,Meteorologica,2013-03-13 12:26:00,
2013-03-13 07:31:00,18.8,17.1,30.43,North,8,0.0,0.0,93,0.00,,,-99.99,Meteorologica,2013-03-13 12:31:00,
2013-03-13 07:36:00,18.8,17.2,30.42,North,8,0.0,0.0,93,0.00,,,-99.99,Meteorologica,2013-03-13 12:36:00,
2013-03-13 07:41:00,18.8,17.2,30.42,North,8,0.0,0.0,93,0.00,,,-99.99,Meteorologica,2013-03-13 12:41:00,
2013-03-13 07:46:00,18.9,17.3,30.42,North,8,0.0,0.0,93,0.00,,,-99.99,Meteorologica,2013-03-13 12:46:00,
2013-03-13 07:51:00,18.8,17.2,30.42,North,8,0.0,0.0,93,0.00,,,-99.99,Meteorologica,2013-03-13 12:51:00,
2013-03-13 07:56:00,18.8,17.2,30.43,West,272,3.7,5.7,93,0.00,,,-99.99,Meteorologica,2013-03-13 12:56:00,
2013-03-13 08:01:00,19.0,17.4,30.44,WSW,251,0.0,3.2,93,0.00,,,-99.99,Meteorologica,2013-03-13 13:01:00,
2013-03-13 08:06:00,19.1,17.5,30.44,WSW,251,0.0,0.0,93,0.00,,,-99.99,Meteorologica,2013-03-13 13:06:00,
2013-03-13 08:11:00,19.3,17.7,30.45,WSW,251,0.0,0.0,93,0.00,,,-99.99,Meteorologica,2013-03-13 13:11:00,
2013-03-13 08:16:00,19.7,18.1,30.46,WSW,251,0.0,0.0,93,0.00,,,-99.99,Meteorologica,2013-03-13 13:16:00,
2013-03-13 08:21:00,20.2,18.6,30.46,WSW,251,0.0,0.0,93,0.00,,,-99.99,Meteorologica,2013-03-13 13:21:00,
2013-03-13 08:26:00,20.8,19.2,30.47,SSE,166,1.8,4.3,93,0.00,,,-99.99,Meteorologica,2013-03-13 13:26:00,
2013-03-13 08:31:00,21.2,19.5,30.47,SSE,166,0.0,0.0,93,0.00,,,-99.99,Meteorologica,2013-03-13 13:31:00,
2013-03-13 08:36:00,21.8,20.1,30.48,SSE,166,0.0,0.0,93,0.00,,,-99.99,Meteorologica,2013-03-13 13:36:00,
2013-03-13 08:41:00,22.3,20.6,30.47,SSE,166,0.0,0.0,93,0.00,,,-99.99,Meteorologica,2013-03-13 13:41:00,
2013-03-13 08:47:00,22.9,21.1,30.48,SSW,196,1.0,3.2,93,0.00,,,-99.99,Meteorologica,2013-03-13 13:47:00,
2013-03-13 08:52:00,23.2,21.4,30.48,SSW,196,0.0,0.0,92,0.00,,,-99.99,Meteorologica,2013-03-13 13:52:00,
2013-03-13 08:57:00,23.9,22.1,30.48,SSW,196,0.0,0.0,92,0.00,,,-99.99,Meteorologica,2013-03-13 13:57:00,
2013-03-13 09:02:00,24.4,22.5,30.48,SSW,196,0.0,0.0,92,0.00,,,-99.99,Meteorologica,2013-03-13 14:02:00,
2013-03-13 09:07:00,25.0,23.1,30.48,SSW,196,0.0,0.0,92,0.00,,,-99.99,Meteorologica,2013-03-13 14:07:00,
2013-03-13 09:12:00,25.5,23.5,30.48,SSW,196,0.0,0.0,92,0.00,,,-99.99,Meteorologica,2013-03-13 14:12:00,
2013-03-13 09:17:00,25.9,23.9,30.48,SSW,196,0.0,0.0,92,0.00,,,-99.99,Meteorologica,2013-03-13 14:17:00,
2013-03-13 09:22:00,26.3,24.2,30.48,SSW,196,0.0,0.0,92,0.00,,,-99.99,Meteorologica,2013-03-13 14:22:00,
2013-03-13 09:27:00,26.4,24.1,30.48,SSW,196,0.0,0.0,91,0.00,,,-99.99,Meteorologica,2013-03-13 14:27:00,
2013-03-13 09:33:00,26.9,24.6,30.48,SSW,196,0.0,0.0,91,0.00,,,-99.99,Meteorologica,2013-03-13 14:33:00,
2013-03-13 09:38:00,27.1,24.8,30.48,SSW,196,0.0,0.0,91,0.00,,,-99.99,Meteorologica,2013-03-13 14:38:00,
2013-03-13 09:43:00,27.4,25.1,30.48,SSW,196,0.0,0.0,91,0.00,,,-99.99,Meteorologica,2013-03-13 14:43:00,
2013-03-13 09:48:00,27.7,25.3,30.48,SSW,196,0.0,0.0,90,0.00,,,-99.99,Meteorologica,2013-03-13 14:48:00,
2013-03-13 09:53:00,28.2,25.8,30.48,SSW,196,0.0,0.0,90,0.00,,,-99.99,Meteorologica,2013-03-13 14:53:00,
2013-03-13 09:58:00,28.7,26.2,30.49,SSW,196,0.0,0.0,90,0.00,,,-99.99,Meteorologica,2013-03-13 14:58:00,
2013-03-13 10:03:00,29.0,26.3,30.49,SSW,196,0.0,0.0,89,0.00,,,-99.99,Meteorologica,2013-03-13 15:03:00,
2013-03-13 10:08:00,29.3,26.3,30.49,SW,220,1.3,3.3,88,0.00,,,-99.99,Meteorologica,2013-03-13 15:08:00,
2013-03-13 10:13:00,29.8,26.6,30.49,South,177,0.0,0.0,87,0.00,,,-99.99,Meteorologica,2013-03-13 15:13:00,
2013-03-13 10:18:00,30.4,26.8,30.49,SSW,203,0.1,1.2,86,0.00,,,-99.99,Meteorologica,2013-03-13 15:18:00,
2013-03-13 10:23:00,31.1,27.5,30.49,SSW,203,0.0,0.0,85,0.00,,,-99.99,Meteorologica,2013-03-13 15:23:00,
2013-03-13 10:28:00,31.4,27.3,30.49,WSW,249,0.4,3.2,84,0.00,,,-99.99,Meteorologica,2013-03-13 15:28:00,
2013-03-13 10:33:00,31.6,27.2,30.49,WSW,249,0.0,0.0,83,0.00,,,-99.99,Meteorologica,2013-03-13 15:33:00,
2013-03-13 10:38:00,32.2,27.9,30.50,SW,220,0.8,3.3,83,0.00,,,-99.99,Meteorologica,2013-03-13 15:38:00,
2013-03-13 10:43:00,32.6,27.7,30.49,SSW,196,0.2,0.0,82,0.00,,,-99.99,Meteorologica,2013-03-13 15:43:00,
2013-03-13 10:49:00,33.2,28.0,30.49,SE,145,0.0,0.0,80,0.00,,,-99.99,Meteorologica,2013-03-13 15:49:00,
2013-03-13 10:54:00,33.4,28.0,30.50,South,173,0.8,2.7,79,0.00,,,-99.99,Meteorologica,2013-03-13 15:54:00,
2013-03-13 10:59:00,33.7,27.7,30.50,South,173,0.0,0.0,78,0.00,,,-99.99,Meteorologica,2013-03-13 15:59:00,
2013-03-13 11:04:00,34.0,28.2,30.50,South,173,0.0,0.0,78,0.00,,,-99.99,Meteorologica,2013-03-13 16:04:00,
2013-03-13 11:09:00,34.1,28.0,30.50,SSW,199,1.6,6.1,78,0.00,,,-99.99,Meteorologica,2013-03-13 16:09:00,
2013-03-13 11:14:00,34.1,28.0,30.50,WSW,237,0.0,4.5,78,0.00,,,-99.99,Meteorologica,2013-03-13 16:14:00,
2013-03-13 11:20:00,34.2,27.8,30.49,WSW,244,0.0,4.7,77,0.00,,,-99.99,Meteorologica,2013-03-13 16:20:00,
2013-03-13 11:25:00,34.6,28.3,30.50,WSW,244,0.0,0.0,77,0.00,,,-99.99,Meteorologica,2013-03-13 16:25:00,
2013-03-13 11:30:00,34.9,28.2,30.50,SE,142,2.8,5.6,76,0.00,,,-99.99,Meteorologica,2013-03-13 16:30:00,
2013-03-13 11:35:00,35.1,28.2,30.49,SE,142,0.0,0.0,75,0.00,,,-99.99,Meteorologica,2013-03-13 16:35:00,
2013-03-13 11:40:00,35.2,28.6,30.49,SSW,213,1.4,3.2,76,0.00,,,-99.99,Meteorologica,2013-03-13 16:40:00,
2013-03-13 11:45:00,35.3,28.3,30.49,ESE,119,3.9,6.6,75,0.00,,,-99.99,Meteorologica,2013-03-13 16:45:00,
2013-03-13 11:50:00,35.4,28.4,30.49,ESE,110,0.0,2.9,75,0.00,,,-99.99,Meteorologica,2013-03-13 16:50:00,
2013-03-13 11:55:00,35.3,28.1,30.49,South,173,0.6,6.8,74,0.00,,,-99.99,Meteorologica,2013-03-13 16:55:00,
2013-03-13 12:00:00,35.6,28.6,30.48,WSW,253,4.2,6.0,75,0.00,,,-99.99,Meteorologica,2013-03-13 17:00:00,
2013-03-13 12:05:00,35.8,28.3,30.48,SSW,205,2.2,5.8,73,0.00,,,-99.99,Meteorologica,2013-03-13 17:05:00,
2013-03-13 12:10:00,35.8,28.2,30.48,SSW,197,0.9,6.4,73,0.00,,,-99.99,Meteorologica,2013-03-13 17:10:00,
2013-03-13 12:15:00,36.0,28.6,30.48,SSE,164,0.4,4.2,73,0.00,,,-99.99,Meteorologica,2013-03-13 17:15:00,
2013-03-13 12:20:00,36.2,28.1,30.48,SSW,197,1.5,7.4,72,0.00,,,-99.99,Meteorologica,2013-03-13 17:20:00,
2013-03-13 12:25:00,36.4,28.3,30.48,NW,306,3.6,5.6,72,0.00,,,-99.99,Meteorologica,2013-03-13 17:25:00,
2013-03-13 12:30:00,36.3,27.4,30.48,West,260,4.0,6.9,69,0.00,,,-99.99,Meteorologica,2013-03-13 17:30:00,
2013-03-13 12:35:00,36.3,27.7,30.48,SW,225,0.0,5.1,70,0.00,,,-99.99,Meteorologica,2013-03-13 17:35:00,
2013-03-13 12:40:00,36.6,27.8,30.47,West,262,1.0,6.5,69,0.00,,,-99.99,Meteorologica,2013-03-13 17:40:00,
2013-03-13 12:45:00,36.8,27.8,30.47,West,262,0.0,0.0,69,0.00,,,-99.99,Meteorologica,2013-03-13 17:45:00,
2013-03-13 12:50:00,36.7,27.5,30.47,West,262,0.0,0.0,68,0.00,,,-99.99,Meteorologica,2013-03-13 17:50:00,
2013-03-13 12:55:00,37.1,28.0,30.47,West,262,0.0,0.0,69,0.00,,,-99.99,Meteorologica,2013-03-13 17:55:00,
2013-03-13 13:00:00,37.7,28.6,30.46,SSW,192,3.3,7.6,69,0.00,,,-99.99,Meteorologica,2013-03-13 18:00:00,
2013-03-13 13:05:00,37.8,27.4,30.46,SSW,213,4.8,6.6,65,0.00,,,-99.99,Meteorologica,2013-03-13 18:05:00,
2013-03-13 13:10:00,38.0,28.2,30.45,South,178,3.3,7.0,66,0.00,,,-99.99,Meteorologica,2013-03-13 18:10:00,
2013-03-13 13:15:00,38.4,27.2,30.45,ESE,117,4.5,6.8,63,0.00,,,-99.99,Meteorologica,2013-03-13 18:15:00,
2013-03-13 13:20:00,38.4,26.7,30.45,South,186,4.9,7.8,61,0.00,,,-99.99,Meteorologica,2013-03-13 18:20:00,
2013-03-13 13:25:00,38.5,27.3,30.45,SSE,152,0.0,7.0,63,0.00,,,-99.99,Meteorologica,2013-03-13 18:25:00,
2013-03-13 13:30:00,38.6,28.1,30.45,SSE,156,0.0,6.9,65,0.00,,,-99.99,Meteorologica,2013-03-13 18:30:00,
2013-03-13 13:35:00,39.1,27.6,30.45,SE,134,3.4,7.6,62,0.00,,,-99.99,Meteorologica,2013-03-13 18:35:00,
2013-03-13 13:40:00,39.7,28.1,30.45,SE,127,0.0,0.0,62,0.00,,,-99.99,Meteorologica,2013-03-13 18:40:00,
2013-03-13 13:45:00,40.1,28.3,30.45,South,182,3.1,8.7,62,0.00,,,-99.99,Meteorologica,2013-03-13 18:45:00,
2013-03-13 13:50:00,40.6,27.9,30.44,WSW,238,3.5,7.8,60,0.00,,,-99.99,Meteorologica,2013-03-13 18:50:00,
2013-03-13 13:56:00,40.8,27.5,30.43,SW,224,2.1,7.9,58,0.00,,,-99.99,Meteorologica,2013-03-13 18:56:00,
2013-03-13 14:01:00,41.4,27.3,30.43,SW,216,6.0,11.2,57,0.00,,,-99.99,Meteorologica,2013-03-13 19:01:00,
2013-03-13 14:06:00,42.0,27.2,30.43,SW,232,5.4,8.4,55,0.00,,,-99.99,Meteorologica,2013-03-13 19:06:00,
2013-03-13 14:11:00,42.6,28.6,30.42,South,172,3.5,6.9,57,0.00,,,-99.99,Meteorologica,2013-03-13 19:11:00,
2013-03-13 14:16:00,43.3,27.4,30.42,ENE,63,3.0,8.1,53,0.00,,,-99.99,Meteorologica,2013-03-13 19:16:00,
2013-03-13 14:21:00,43.0,27.9,30.42,ESE,123,6.6,11.4,54,0.00,,,-99.99,Meteorologica,2013-03-13 19:21:00,
2013-03-13 14:26:00,43.5,28.8,30.42,SSE,168,4.8,9.1,55,0.00,,,-99.99,Meteorologica,2013-03-13 19:26:00,
2013-03-13 14:31:00,43.7,27.1,30.41,ESE,122,4.0,12.8,51,0.00,,,-99.99,Meteorologica,2013-03-13 19:31:00,
2013-03-13 14:36:00,43.9,27.8,30.40,SE,144,5.1,9.7,53,0.00,,,-99.99,Meteorologica,2013-03-13 19:36:00,
2013-03-13 14:41:00,43.7,27.9,30.39,SE,124,2.1,8.8,53,0.00,,,-99.99,Meteorologica,2013-03-13 19:41:00,
2013-03-13 14:46:00,44.4,27.8,30.40,SSE,152,4.6,9.2,51,0.00,,,-99.99,Meteorologica,2013-03-13 19:46:00,
2013-03-13 14:51:00,44.8,27.3,30.39,SSW,199,4.9,9.1,50,0.00,,,-99.99,Meteorologica,2013-03-13 19:51:00,
2013-03-13 14:56:00,44.5,26.0,30.39,South,179,5.4,11.2,48,0.00,,,-99.99,Meteorologica,2013-03-13 19:56:00,
2013-03-13 15:01:00,44.9,26.6,30.38,South,172,2.9,10.8,48,0.00,,,-99.99,Meteorologica,2013-03-13 20:01:00,
2013-03-13 15:06:00,45.8,26.4,30.38,SSE,153,5.4,7.4,46,0.00,,,-99.99,Meteorologica,2013-03-13 20:06:00,
2013-03-13 15:11:00,45.9,26.1,30.38,SSE,149,6.3,9.9,45,0.00,,,-99.99,Meteorologica,2013-03-13 20:11:00,
2013-03-13 15:16:00,46.0,26.7,30.37,ESE,107,1.5,8.9,46,0.00,,,-99.99,Meteorologica,2013-03-13 20:16:00,
2013-03-13 15:21:00,46.3,27.0,30.37,SSE,149,3.9,11.2,46,0.00,,,-99.99,Meteorologica,2013-03-13 20:21:00,
2013-03-13 15:26:00,46.0,26.4,30.37,SE,139,5.2,10.2,46,0.00,,,-99.99,Meteorologica,2013-03-13 20:26:00,
2013-03-13 15:32:00,46.1,25.6,30.37,ESE,108,5.7,5.7,44,0.00,,,-99.99,Meteorologica,2013-03-13 20:32:00,
2013-03-13 15:37:00,46.5,26.9,30.37,ESE,103,4.4,5.0,46,0.00,,,-99.99,Meteorologica,2013-03-13 20:37:00,
2013-03-13 15:42:00,46.8,26.8,30.37,WSW,248,5.6,5.6,45,0.00,,,-99.99,Meteorologica,2013-03-13 20:42:00,
2013-03-13 15:47:00,47.2,27.1,30.36,SSE,167,2.9,0.0,45,0.00,,,-99.99,Meteorologica,2013-03-13 20:47:00,
2013-03-13 15:52:00,47.8,28.1,30.37,ESE,111,2.9,0.0,46,0.00,,,-99.99,Meteorologica,2013-03-13 20:52:00,
2013-03-13 15:57:00,48.0,28.1,30.37,SSW,209,5.5,5.5,46,0.00,,,-99.99,Meteorologica,2013-03-13 20:57:00,
2013-03-13 16:02:00,48.3,28.9,30.37,ESE,119,3.5,8.4,46,0.00,,,-99.99,Meteorologica,2013-03-13 21:02:00,
2013-03-13 16:07:00,48.5,28.7,30.37,SSE,163,5.7,7.4,46,0.00,,,-99.99,Meteorologica,2013-03-13 21:07:00,
2013-03-13 16:12:00,48.6,28.9,30.37,South,188,2.6,6.3,46,0.00,,,-99.99,Meteorologica,2013-03-13 21:12:00,
2013-03-13 16:18:00,48.5,28.0,30.36,South,189,6.3,8.4,45,0.00,,,-99.99,Meteorologica,2013-03-13 21:18:00,
2013-03-13 16:23:00,49.0,28.3,30.37,SSE,168,2.1,6.7,44,0.00,,,-99.99,Meteorologica,2013-03-13 21:23:00,
2013-03-13 16:28:00,48.9,27.6,30.36,SSW,208,5.1,9.9,43,0.00,,,-99.99,Meteorologica,2013-03-13 21:28:00,
2013-03-13 16:33:00,48.8,27.3,30.36,SSW,199,6.3,10.0,43,0.00,,,-99.99,Meteorologica,2013-03-13 21:33:00,
2013-03-13 16:38:00,49.4,28.2,30.36,SSE,159,7.2,12.6,43,0.00,,,-99.99,Meteorologica,2013-03-13 21:38:00,
2013-03-13 16:43:00,49.6,27.6,30.36,South,175,4.8,6.3,42,0.00,,,-99.99,Meteorologica,2013-03-13 21:43:00,
2013-03-13 16:48:00,49.2,25.4,30.36,SSW,212,6.7,9.7,39,0.00,,,-99.99,Meteorologica,2013-03-13 21:48:00,
2013-03-13 16:53:00,49.1,27.0,30.36,SW,229,7.3,10.2,42,0.00,,,-99.99,Meteorologica,2013-03-13 21:53:00,
2013-03-13 16:58:00,48.7,25.5,30.36,SW,215,5.7,7.8,40,0.00,,,-99.99,Meteorologica,2013-03-13 21:58:00,
2013-03-13 17:03:00,48.5,26.0,30.35,South,170,6.3,9.1,41,0.00,,,-99.99,Meteorologica,2013-03-13 22:03:00,
2013-03-13 17:08:00,48.6,25.4,30.35,WSW,239,6.9,9.7,40,0.00,,,-99.99,Meteorologica,2013-03-13 22:08:00,
2013-03-13 17:13:00,48.9,26.4,30.35,South,179,3.4,7.7,41,0.00,,,-99.99,Meteorologica,2013-03-13 22:13:00,
2013-03-13 17:18:00,49.0,26.5,30.35,SSW,195,8.1,10.1,41,0.00,,,-99.99,Meteorologica,2013-03-13 22:18:00,
2013-03-13 17:23:00,48.8,25.9,30.35,SW,221,5.7,8.9,40,0.00,,,-99.99,Meteorologica,2013-03-13 22:23:00,
2013-03-13 17:28:00,48.5,25.4,30.35,SW,230,5.7,7.8,40,0.00,,,-99.99,Meteorologica,2013-03-13 22:28:00,
2013-03-13 17:33:00,48.4,26.6,30.35,ESE,113,3.2,5.5,42,0.00,,,-99.99,Meteorologica,2013-03-13 22:33:00,
2013-03-13 17:38:00,48.6,26.7,30.35,WSW,249,3.0,5.6,42,0.00,,,-99.99,Meteorologica,2013-03-13 22:38:00,
2013-03-13 17:43:00,49.0,27.1,30.34,SE,146,3.1,6.7,42,0.00,,,-99.99,Meteorologica,2013-03-13 22:43:00,
2013-03-13 17:48:00,49.2,26.9,30.34,SE,142,0.0,0.0,42,0.00,,,-99.99,Meteorologica,2013-03-13 22:48:00,
2013-03-13 17:53:00,48.8,26.6,30.34,South,186,6.7,11.2,42,0.00,,,-99.99,Meteorologica,2013-03-13 22:53:00,
2013-03-13 17:58:00,48.5,26.6,30.34,SSE,152,4.7,7.0,42,0.00,,,-99.99,Meteorologica,2013-03-13 22:58:00,
2013-03-13 18:03:00,48.3,27.1,30.33,ESE,115,2.3,6.5,43,0.00,,,-99.99,Meteorologica,2013-03-13 23:03:00,
2013-03-13 18:08:00,48.4,27.7,30.34,SSW,208,5.7,9.3,44,0.00,,,-99.99,Meteorologica,2013-03-13 23:08:00,
2013-03-13 18:13:00,48.5,27.7,30.33,South,177,1.7,7.9,44,0.00,,,-99.99,Meteorologica,2013-03-13 23:13:00,
2013-03-13 18:18:00,48.3,27.8,30.33,SE,142,5.1,9.2,45,0.00,,,-99.99,Meteorologica,2013-03-13 23:18:00,
2013-03-13 18:23:00,48.4,28.3,30.32,SSE,165,5.0,7.1,45,0.00,,,-99.99,Meteorologica,2013-03-13 23:23:00,
2013-03-13 18:28:00,48.5,28.6,30.32,SE,133,5.5,8.0,46,0.00,,,-99.99,Meteorologica,2013-03-13 23:28:00,
2013-03-13 18:33:00,48.1,28.7,30.32,SSE,148,4.1,8.3,47,0.00,,,-99.99,Meteorologica,2013-03-13 23:33:00,
2013-03-13 18:38:00,47.9,28.7,30.32,SE,145,6.5,9.9,47,0.00,,,-99.99,Meteorologica,2013-03-13 23:38:00,
2013-03-13 18:43:00,47.8,28.9,30.31,SSE,154,5.8,8.6,47,0.00,,,-99.99,Meteorologica,2013-03-13 23:43:00,
2013-03-13 18:48:00,47.8,29.5,30.31,SE,140,3.9,6.9,48,0.00,,,-99.99,Meteorologica,2013-03-13 23:48:00,
2013-03-13 18:53:00,47.5,29.3,30.31,SE,146,3.4,5.0,49,0.00,,,-99.99,Meteorologica,2013-03-13 23:53:00,
2013-03-13 18:58:00,47.4,29.7,30.31,ESE,107,1.1,5.0,50,0.00,,,-99.99,Meteorologica,2013-03-13 23:58:00,
2013-03-13 19:03:00,47.1,29.6,30.31,ESE,123,4.6,6.9,50,0.00,,,-99.99,Meteorologica,2013-03-14 00:03:00,
2013-03-13 19:08:00,46.8,29.4,30.31,SSE,155,2.5,5.7,50,0.00,,,-99.99,Meteorologica,2013-03-14 00:08:00,
2013-03-13 19:13:00,46.5,29.3,30.30,South,173,0.8,6.5,51,0.00,,,-99.99,Meteorologica,2013-03-14 00:13:00,
2013-03-13 19:18:00,46.3,29.2,30.30,South,172,4.9,7.8,51,0.00,,,-99.99,Meteorologica,2013-03-14 00:18:00,
2013-03-13 19:23:00,46.1,29.3,30.29,SE,131,0.9,4.9,51,0.00,,,-99.99,Meteorologica,2013-03-14 00:23:00,
2013-03-13 19:28:00,45.7,29.1,30.29,SE,131,0.0,0.0,52,0.00,,,-99.99,Meteorologica,2013-03-14 00:28:00,
2013-03-13 19:33:00,45.3,29.1,30.29,SE,131,0.0,0.0,52,0.00,,,-99.99,Meteorologica,2013-03-14 00:33:00,
2013-03-13 19:38:00,45.0,29.0,30.29,SE,136,0.3,3.0,53,0.00,,,-99.99,Meteorologica,2013-03-14 00:38:00,
2013-03-13 19:43:00,44.7,28.9,30.29,South,176,3.5,7.6,53,0.00,,,-99.99,Meteorologica,2013-03-14 00:43:00,
2013-03-13 19:48:00,44.3,28.7,30.29,SE,146,2.0,6.7,53,0.00,,,-99.99,Meteorologica,2013-03-14 00:48:00,
2013-03-13 19:53:00,44.0,28.7,30.29,SE,129,0.0,0.0,54,0.00,,,-99.99,Meteorologica,2013-03-14 00:53:00,
2013-03-13 19:58:00,43.7,28.6,30.29,ESE,112,0.0,0.0,55,0.00,,,-99.99,Meteorologica,2013-03-14 00:58:00,
2013-03-13 20:03:00,43.4,28.8,30.29,SE,128,0.0,0.0,56,0.00,,,-99.99,Meteorologica,2013-03-14 01:03:00,
2013-03-13 20:08:00,43.0,28.5,30.29,SE,136,3.9,7.1,56,0.00,,,-99.99,Meteorologica,2013-03-14 01:08:00,
2013-03-13 20:13:00,42.6,28.3,30.29,East,97,0.0,0.0,56,0.00,,,-99.99,Meteorologica,2013-03-14 01:13:00,
2013-03-13 20:18:00,42.3,28.4,30.30,SE,135,0.0,0.0,57,0.00,,,-99.99,Meteorologica,2013-03-14 01:18:00,
2013-03-13 20:23:00,42.0,28.3,30.30,East,95,0.6,6.0,58,0.00,,,-99.99,Meteorologica,2013-03-14 01:23:00,
2013-03-13 20:28:00,41.7,28.3,30.29,ESE,118,2.1,5.3,58,0.00,,,-99.99,Meteorologica,2013-03-14 01:28:00,
2013-03-13 20:33:00,41.3,28.2,30.30,SE,133,4.8,6.9,59,0.00,,,-99.99,Meteorologica,2013-03-14 01:33:00,
2013-03-13 20:38:00,41.1,28.2,30.29,SE,131,0.0,0.0,59,0.00,,,-99.99,Meteorologica,2013-03-14 01:38:00,
2013-03-13 20:43:00,40.7,28.2,30.29,East,95,1.5,5.4,60,0.00,,,-99.99,Meteorologica,2013-03-14 01:43:00,
2013-03-13 20:49:00,40.4,28.2,30.29,East,95,0.0,0.0,61,0.00,,,-99.99,Meteorologica,2013-03-14 01:49:00,
2013-03-13 20:54:00,40.1,28.0,30.29,East,95,0.0,0.0,61,0.00,,,-99.99,Meteorologica,2013-03-14 01:54:00,
2013-03-13 20:59:00,39.9,27.9,30.29,ESE,103,2.0,5.5,61,0.00,,,-99.99,Meteorologica,2013-03-14 01:59:00,
2013-03-13 21:04:00,39.7,27.8,30.29,SE,132,2.6,8.9,62,0.00,,,-99.99,Meteorologica,2013-03-14 02:04:00,
2013-03-13 21:09:00,39.5,27.8,30.28,SE,135,2.3,4.5,62,0.00,,,-99.99,Meteorologica,2013-03-14 02:09:00,
2013-03-13 21:14:00,39.4,27.6,30.28,SSE,160,0.7,3.3,62,0.00,,,-99.99,Meteorologica,2013-03-14 02:14:00,
2013-03-13 21:19:00,39.3,27.6,30.28,SSW,199,1.2,3.5,62,0.00,,,-99.99,Meteorologica,2013-03-14 02:19:00,
2013-03-13 21:24:00,39.0,27.5,30.28,South,189,0.0,0.0,62,0.00,,,-99.99,Meteorologica,2013-03-14 02:24:00,
2013-03-13 21:29:00,38.9,27.5,30.28,SSW,203,3.4,7.3,63,0.00,,,-99.99,Meteorologica,2013-03-14 02:29:00,
2013-03-13 21:34:00,38.8,27.5,30.28,SE,146,0.0,4.4,63,0.00,,,-99.99,Meteorologica,2013-03-14 02:34:00,
2013-03-13 21:39:00,38.6,27.5,30.27,SSE,153,0.0,4.5,63,0.00,,,-99.99,Meteorologica,2013-03-14 02:39:00,
2013-03-13 21:44:00,38.5,27.6,30.27,South,184,0.0,0.0,64,0.00,,,-99.99,Meteorologica,2013-03-14 02:44:00,
2013-03-13 21:49:00,38.2,27.6,30.27,South,184,0.0,0.0,65,0.00,,,-99.99,Meteorologica,2013-03-14 02:49:00,
2013-03-13 21:54:00,37.9,27.5,30.27,South,184,0.0,0.0,65,0.00,,,-99.99,Meteorologica,2013-03-14 02:54:00,
2013-03-13 21:59:00,37.7,27.5,30.27,South,184,0.0,0.0,66,0.00,,,-99.99,Meteorologica,2013-03-14 02:59:00,
2013-03-13 22:04:00,37.6,27.5,30.27,South,184,0.0,0.0,66,0.00,,,-99.99,Meteorologica,2013-03-14 03:04:00,
2013-03-13 22:09:00,37.4,27.5,30.27,SSE,158,0.0,5.7,66,0.00,,,-99.99,Meteorologica,2013-03-14 03:09:00,
2013-03-13 22:14:00,37.3,27.6,30.28,SE,135,0.0,0.0,67,0.00,,,-99.99,Meteorologica,2013-03-14 03:14:00,
2013-03-13 22:19:00,37.2,27.7,30.27,ESE,119,3.2,5.1,67,0.00,,,-99.99,Meteorologica,2013-03-14 03:19:00,
2013-03-13 22:24:00,37.0,27.6,30.27,SE,127,0.0,0.0,68,0.00,,,-99.99,Meteorologica,2013-03-14 03:24:00,
2013-03-13 22:29:00,36.9,27.6,30.27,SE,127,0.0,0.0,68,0.00,,,-99.99,Meteorologica,2013-03-14 03:29:00,
2013-03-13 22:34:00,36.8,27.6,30.27,SE,127,0.0,0.0,68,0.00,,,-99.99,Meteorologica,2013-03-14 03:34:00,
2013-03-13 22:39:00,36.6,27.6,30.27,SE,127,0.0,0.0,69,0.00,,,-99.99,Meteorologica,2013-03-14 03:39:00,
2013-03-13 22:44:00,36.5,27.5,30.27,SSE,162,1.6,5.5,69,0.00,,,-99.99,Meteorologica,2013-03-14 03:44:00,
2013-03-13 22:49:00,36.4,27.4,30.27,SE,136,2.2,6.0,69,0.00,,,-99.99,Meteorologica,2013-03-14 03:49:00,
2013-03-13 22:54:00,36.5,27.7,30.27,SE,136,1.1,5.1,69,0.00,,,-99.99,Meteorologica,2013-03-14 03:54:00,
2013-03-13 22:59:00,36.5,27.6,30.27,SE,136,0.0,0.0,69,0.00,,,-99.99,Meteorologica,2013-03-14 03:59:00,
2013-03-13 23:01:00,36.4,27.6,30.27,SE,136,0.0,0.0,69,0.00,,,-99.99,Meteorologica,2013-03-14 04:01:00,
2013-03-13 23:02:00,36.5,27.6,30.27,SE,136,0.0,0.0,69,0.00,,,-99.99,Meteorologica,2013-03-14 04:02:00,
2013-03-13 23:03:00,36.6,27.7,30.26,ESE,117,2.3,4.4,69,0.00,,,-99.99,Meteorologica,2013-03-14 04:03:00,
2013-03-13 23:08:00,36.5,27.7,30.27,SE,140,3.5,5.5,69,0.00,,,-99.99,Meteorologica,2013-03-14 04:08:00,
2013-03-13 23:13:00,36.4,27.7,30.27,ESE,112,0.4,2.4,70,0.00,,,-99.99,Meteorologica,2013-03-14 04:13:00,
2013-03-13 23:17:00,36.3,27.7,30.27,SSE,159,3.9,4.2,70,0.00,,,-99.99,Meteorologica,2013-03-14 04:17:00,
2013-03-13 23:22:00,36.2,27.6,30.26,SE,125,3.2,0.0,70,0.00,,,-99.99,Meteorologica,2013-03-14 04:22:00,
2013-03-13 23:28:00,36.3,27.8,30.26,SE,135,0.0,0.0,70,0.00,,,-99.99,Meteorologica,2013-03-14 04:28:00,
2013-03-13 23:33:00,36.3,27.8,30.26,SE,141,2.2,3.4,70,0.00,,,-99.99,Meteorologica,2013-03-14 04:33:00,
2013-03-13 23:38:00,36.2,27.8,30.26,East,101,0.0,0.0,71,0.00,,,-99.99,Meteorologica,2013-03-14 04:38:00,
2013-03-13 23:43:00,36.3,27.9,30.26,East,101,0.0,0.0,71,0.00,,,-99.99,Meteorologica,2013-03-14 04:43:00,
2013-03-13 23:48:00,36.2,27.8,30.26,East,101,0.0,0.0,71,0.00,,,-99.99,Meteorologica,2013-03-14 04:48:00,
2013-03-13 23:53:00,36.1,27.9,30.25,East,101,0.0,0.0,71,0.00,,,-99.99,Meteorologica,2013-03-14 04:53:00,
2013-03-13 23:59:00,35.9,27.9,30.25,East,101,0.0,0.0,72,0.00,,,-99.99,Meteorologica,2013-03-14 04:59:00,